LAN394 SCSE-SCCF

Flight info

Callsign LAN394
Flight time 1h 27m
Altitude 35000
Route VUGUS4 VUGUS UQ802 PUNAP UT296 BUVSA/N0438F340 UT296 PAGUN UQ814 MARGU MARGU3A
Aircraft A320/M-SDE3FGHIRWY/LB1

Departure

Time 2026-04-25 18:15
Airport La Florida Airport (SCSE)

Arrival

Time 2026-04-25 19:42
Airport El Loa Airport (SCCF)
Time Latitude Longitude Altitude Speed Heading
2026-04-25 17:36 -29.91654 -71.20368 467 ft 0 kts 156°
2026-04-25 18:09 -29.91655 -71.20367 467 ft 1 kts 156°
2026-04-25 18:09 -29.91657 -71.20365 467 ft 1 kts 139°
2026-04-25 18:10 -29.91648 -71.20345 465 ft 5 kts 64°
2026-04-25 18:10 -29.91648 -71.20295 467 ft 9 kts 105°
2026-04-25 18:10 -29.91679 -71.20222 465 ft 12 kts 108°
2026-04-25 18:10 -29.91642 -71.20137 462 ft 15 kts 32°
2026-04-25 18:11 -29.91611 -71.20030 464 ft 16 kts 114°
2026-04-25 18:11 -29.91662 -71.19917 463 ft 16 kts 116°
2026-04-25 18:11 -29.91711 -71.19805 468 ft 16 kts 116°
2026-04-25 18:11 -29.91758 -71.19695 472 ft 15 kts 116°
2026-04-25 18:12 -29.91800 -71.19596 475 ft 13 kts 116°
2026-04-25 18:12 -29.91841 -71.19502 475 ft 15 kts 116°
2026-04-25 18:12 -29.91889 -71.19391 481 ft 15 kts 116°
2026-04-25 18:12 -29.91934 -71.19286 479 ft 14 kts 117°
2026-04-25 18:13 -29.91979 -71.19184 479 ft 14 kts 116°
2026-04-25 18:13 -29.92040 -71.19100 484 ft 13 kts 140°
2026-04-25 18:13 -29.92017 -71.19067 485 ft 5 kts 295°
2026-04-25 18:14 -29.92014 -71.19093 486 ft 0 kts 307°
2026-04-25 18:14 -29.91945 -71.19236 482 ft 56 kts 295°
2026-04-25 18:14 -29.91677 -71.19879 467 ft 118 kts 296°
2026-04-25 18:14 -29.91277 -71.20838 793 ft 132 kts 294°
2026-04-25 18:15 -29.90888 -71.21787 1360 ft 138 kts 293°
2026-04-25 18:15 -29.90450 -71.22850 1637 ft 158 kts 293°
2026-04-25 18:15 -29.89944 -71.24070 1873 ft 180 kts 294°
2026-04-25 18:15 -29.89369 -71.25456 2132 ft 203 kts 294°
2026-04-25 18:16 -29.88719 -71.27020 2483 ft 229 kts 294°
2026-04-25 18:16 -29.87746 -71.28584 2856 ft 256 kts 322°
2026-04-25 18:16 -29.84220 -71.28731 4152 ft 278 kts 31°
2026-04-25 18:17 -29.82655 -71.27417 5002 ft 281 kts 41°
2026-04-25 18:17 -29.81135 -71.25972 5868 ft 284 kts 40°
2026-04-25 18:17 -29.79609 -71.24519 6729 ft 285 kts 39°
2026-04-25 18:17 -29.78078 -71.23059 7531 ft 287 kts 39°
2026-04-25 18:18 -29.76468 -71.21690 7875 ft 287 kts 31°
2026-04-25 18:18 -29.74751 -71.20531 7982 ft 285 kts 27°
2026-04-25 18:18 -29.72998 -71.19478 8004 ft 284 kts 26°
2026-04-25 18:18 -29.71236 -71.18453 8002 ft 283 kts 25°
2026-04-25 18:19 -29.69474 -71.17417 8006 ft 284 kts 26°
2026-04-25 18:19 -29.67723 -71.16366 8006 ft 284 kts 26°
2026-04-25 18:19 -29.65918 -71.15484 8028 ft 284 kts 16°
2026-04-25 18:19 -29.64022 -71.14781 8758 ft 286 kts 17°
2026-04-25 18:20 -29.62128 -71.14062 9664 ft 286 kts 17°
2026-04-25 18:20 -29.60233 -71.13337 10366 ft 292 kts 17°
2026-04-25 18:20 -29.58232 -71.12572 10591 ft 314 kts 17°
2026-04-25 18:20 -29.56112 -71.11758 11010 ft 327 kts 17°
2026-04-25 18:21 -29.53940 -71.10921 11605 ft 332 kts 17°
2026-04-25 18:21 -29.51727 -71.10068 12267 ft 337 kts 17°
2026-04-25 18:21 -29.49485 -71.09207 12903 ft 342 kts 17°
2026-04-25 18:21 -29.47212 -71.08336 13517 ft 347 kts 17°
2026-04-25 18:22 -29.44906 -71.07455 14118 ft 352 kts 16°
2026-04-25 18:22 -29.44151 -71.07167 14292 ft 354 kts 16°
2026-04-25 18:22 -29.40221 -71.05673 15163 ft 362 kts 16°
2026-04-25 18:22 -29.37786 -71.04746 15713 ft 367 kts 15°
2026-04-25 18:23 -29.35381 -71.03831 16214 ft 372 kts 15°
2026-04-25 18:23 -29.32911 -71.02891 16742 ft 377 kts 15°
2026-04-25 18:23 -29.30408 -71.01941 17277 ft 381 kts 15°
2026-04-25 18:23 -29.27866 -71.00998 17814 ft 385 kts 11°
2026-04-25 18:24 -29.25236 -71.00430 18336 ft 386 kts
2026-04-25 18:24 -29.22546 -71.00176 18827 ft 389 kts 360°
2026-04-25 18:24 -29.19839 -70.99926 19360 ft 392 kts 359°
2026-04-25 18:24 -29.17106 -70.99673 19914 ft 395 kts 359°
2026-04-25 18:25 -29.14356 -70.99414 20464 ft 398 kts 359°
2026-04-25 18:25 -29.11584 -70.99152 20997 ft 401 kts 359°
2026-04-25 18:25 -29.09738 -70.98977 21347 ft 402 kts 359°
2026-04-25 18:25 -29.06938 -70.98714 21855 ft 405 kts 359°
2026-04-25 18:26 -29.04115 -70.98451 22373 ft 408 kts 358°
2026-04-25 18:26 -29.01280 -70.98184 22907 ft 410 kts 358°
2026-04-25 18:26 -28.98420 -70.97914 23436 ft 413 kts 358°
2026-04-25 18:26 -28.95549 -70.97644 23881 ft 416 kts 358°
2026-04-25 18:27 -28.92652 -70.97373 24304 ft 418 kts 358°
2026-04-25 18:27 -28.89748 -70.97102 24725 ft 420 kts 357°
2026-04-25 18:27 -28.86823 -70.96828 25154 ft 422 kts 357°
2026-04-25 18:27 -28.83891 -70.96556 25554 ft 424 kts 356°
2026-04-25 18:28 -28.80937 -70.96278 25944 ft 427 kts 356°
2026-04-25 18:28 -28.77972 -70.95999 26349 ft 429 kts 356°
2026-04-25 18:28 -28.74991 -70.95719 26753 ft 430 kts 356°
2026-04-25 18:29 -28.68994 -70.95158 27461 ft 435 kts 355°
2026-04-25 18:29 -28.65969 -70.94879 27832 ft 437 kts 355°
2026-04-25 18:30 -28.56801 -70.94039 28917 ft 445 kts 354°
2026-04-25 18:30 -28.53695 -70.93748 29287 ft 448 kts 354°
2026-04-25 18:30 -28.50585 -70.93454 29677 ft 451 kts 354°
2026-04-25 18:30 -28.47447 -70.93152 30071 ft 454 kts 354°
2026-04-25 18:31 -28.44285 -70.92832 30411 ft 457 kts 354°
2026-04-25 18:31 -28.41148 -70.92504 30740 ft 460 kts 354°
2026-04-25 18:31 -28.37921 -70.92161 31210 ft 459 kts 354°
2026-04-25 18:31 -28.34799 -70.91824 31740 ft 456 kts 354°
2026-04-25 18:32 -28.31638 -70.91464 32253 ft 457 kts 356°
2026-04-25 18:32 -28.28492 -70.90664 32768 ft 472 kts
2026-04-25 18:32 -28.25408 -70.89218 33270 ft 487 kts 17°
2026-04-25 18:32 -28.22514 -70.87127 33727 ft 500 kts 26°
2026-04-25 18:33 -28.19731 -70.84763 34170 ft 500 kts 26°
2026-04-25 18:33 -28.16958 -70.82401 34582 ft 498 kts 26°
2026-04-25 18:33 -28.14192 -70.80044 34919 ft 497 kts 26°
2026-04-25 18:33 -28.11425 -70.77692 35012 ft 496 kts 26°
2026-04-25 18:34 -28.05933 -70.73038 35036 ft 490 kts 26°
2026-04-25 18:34 -28.00467 -70.68437 35037 ft 489 kts 26°
2026-04-25 18:35 -27.95005 -70.63849 35035 ft 488 kts 26°
2026-04-25 18:35 -27.89553 -70.59259 35035 ft 488 kts 26°
2026-04-25 18:36 -27.84101 -70.54669 35039 ft 489 kts 26°
2026-04-25 18:36 -27.78680 -70.50118 35036 ft 488 kts 26°
2026-04-25 18:37 -27.73194 -70.45516 35040 ft 488 kts 26°
2026-04-25 18:37 -27.67783 -70.40973 35032 ft 487 kts 26°
2026-04-25 18:38 -27.62306 -70.36397 35032 ft 487 kts 26°
2026-04-25 18:38 -27.56902 -70.31884 35021 ft 486 kts 26°
2026-04-25 18:39 -27.51433 -70.27318 35017 ft 486 kts 25°
2026-04-25 18:39 -27.46031 -70.22817 35023 ft 486 kts 26°
2026-04-25 18:40 -27.40586 -70.18289 35022 ft 485 kts 26°
2026-04-25 18:40 -27.35163 -70.13772 35020 ft 485 kts 26°
2026-04-25 18:41 -27.29738 -70.09266 35018 ft 484 kts 26°
2026-04-25 18:41 -27.24094 -70.05427 35019 ft 464 kts 13°
2026-04-25 18:42 -27.19185 -70.02973 35026 ft 464 kts 13°
2026-04-25 18:42 -27.12299 -69.99529 35016 ft 464 kts 13°
2026-04-25 18:43 -27.06406 -69.96567 35019 ft 463 kts 13°
2026-04-25 18:43 -27.00530 -69.93622 35025 ft 463 kts 13°
2026-04-25 18:44 -26.94634 -69.90676 35022 ft 463 kts 13°
2026-04-25 18:44 -26.88746 -69.87731 35026 ft 463 kts 13°
2026-04-25 18:45 -26.82857 -69.84787 35033 ft 463 kts 13°
2026-04-25 18:45 -26.77013 -69.81870 35038 ft 463 kts 13°
2026-04-25 18:46 -26.71130 -69.78936 35047 ft 463 kts 13°
2026-04-25 18:46 -26.65246 -69.76020 35057 ft 463 kts 13°
2026-04-25 18:47 -26.59361 -69.73100 35062 ft 462 kts 14°
2026-04-25 18:47 -26.53483 -69.70178 35066 ft 462 kts 14°
2026-04-25 18:48 -26.47612 -69.67269 35065 ft 462 kts 14°
2026-04-25 18:48 -26.41749 -69.64367 35064 ft 461 kts 14°
2026-04-25 18:49 -26.35839 -69.61444 35071 ft 461 kts 14°
2026-04-25 18:49 -26.30008 -69.58572 35067 ft 461 kts 14°
2026-04-25 18:50 -26.24153 -69.55672 35071 ft 460 kts 14°
2026-04-25 18:50 -26.18291 -69.52773 35067 ft 460 kts 14°
2026-04-25 18:51 -26.13421 -69.50375 35079 ft 460 kts 14°
2026-04-25 18:51 -26.06577 -69.47016 35083 ft 459 kts 14°
2026-04-25 18:52 -26.00728 -69.44148 35091 ft 459 kts 14°
2026-04-25 18:52 -25.94878 -69.41276 35098 ft 459 kts 15°
2026-04-25 18:53 -25.89036 -69.38406 35106 ft 458 kts 15°
2026-04-25 18:53 -25.83205 -69.35540 35116 ft 458 kts 15°
2026-04-25 18:54 -25.74473 -69.31286 35122 ft 456 kts 15°
2026-04-25 18:55 -25.68703 -69.28472 35128 ft 455 kts 15°
2026-04-25 18:55 -25.62900 -69.25637 35129 ft 455 kts 15°
2026-04-25 18:56 -25.57067 -69.23159 35124 ft 442 kts
2026-04-25 18:56 -25.51063 -69.22040 35126 ft 435 kts
2026-04-25 18:57 -25.45076 -69.21004 35121 ft 436 kts
2026-04-25 18:57 -25.39081 -69.19951 35118 ft 436 kts
2026-04-25 18:58 -25.33085 -69.18896 35115 ft 436 kts
2026-04-25 18:58 -25.24076 -69.17315 35112 ft 437 kts
2026-04-25 18:59 -25.12069 -69.15225 35100 ft 437 kts
2026-04-25 19:00 -25.03082 -69.13666 35102 ft 438 kts
2026-04-25 19:01 -24.94067 -69.12100 35084 ft 437 kts
2026-04-25 19:01 -24.88052 -69.11052 35072 ft 437 kts
2026-04-25 19:02 -24.79031 -69.09475 35082 ft 437 kts
2026-04-25 19:03 -24.72024 -69.08236 35072 ft 436 kts
2026-04-25 19:03 -24.64043 -69.06812 35058 ft 436 kts
2026-04-25 19:04 -24.55051 -69.05202 35062 ft 436 kts
2026-04-25 19:05 -24.43062 -69.03087 35052 ft 436 kts
2026-04-25 19:06 -24.37067 -69.02022 35044 ft 436 kts
2026-04-25 19:06 -24.28106 -69.00425 35030 ft 437 kts
2026-04-25 19:07 -24.19091 -68.98834 35013 ft 438 kts
2026-04-25 19:08 -24.10057 -68.97248 35007 ft 438 kts
2026-04-25 19:09 -24.00012 -68.95473 35001 ft 438 kts
2026-04-25 19:10 -23.89980 -68.93703 35000 ft 437 kts
2026-04-25 19:10 -23.86964 -68.93176 34466 ft 442 kts
2026-04-25 19:10 -23.83898 -68.92646 33850 ft 446 kts
2026-04-25 19:10 -23.80827 -68.92112 33311 ft 447 kts
2026-04-25 19:11 -23.77758 -68.91575 32778 ft 447 kts
2026-04-25 19:11 -23.74690 -68.91032 32227 ft 448 kts
2026-04-25 19:11 -23.71615 -68.90483 31682 ft 448 kts
2026-04-25 19:11 -23.68532 -68.89937 31103 ft 449 kts
2026-04-25 19:12 -23.65439 -68.89394 30519 ft 450 kts
2026-04-25 19:12 -23.62339 -68.88852 29901 ft 452 kts
2026-04-25 19:12 -23.59228 -68.88307 29241 ft 452 kts
2026-04-25 19:12 -23.56121 -68.87766 28610 ft 451 kts
2026-04-25 19:13 -23.53065 -68.87231 27966 ft 451 kts
2026-04-25 19:13 -23.49965 -68.86687 27324 ft 451 kts
2026-04-25 19:13 -23.46866 -68.86145 26669 ft 450 kts
2026-04-25 19:13 -23.43775 -68.85605 26023 ft 449 kts
2026-04-25 19:14 -23.40688 -68.85065 25378 ft 449 kts
2026-04-25 19:14 -23.38605 -68.84701 24939 ft 448 kts
2026-04-25 19:14 -23.34527 -68.84093 24076 ft 444 kts 359°
2026-04-25 19:14 -23.31451 -68.83980 23410 ft 443 kts 358°
2026-04-25 19:15 -23.28365 -68.83881 22723 ft 440 kts 358°
2026-04-25 19:15 -23.25317 -68.83782 22115 ft 436 kts 358°
2026-04-25 19:15 -23.22296 -68.83680 21519 ft 433 kts 359°
2026-04-25 19:15 -23.19299 -68.83580 20937 ft 429 kts 359°
2026-04-25 19:16 -23.16320 -68.83481 20378 ft 426 kts 359°
2026-04-25 19:16 -23.13368 -68.83378 19827 ft 423 kts 359°
2026-04-25 19:16 -23.10436 -68.83272 19283 ft 421 kts 359°
2026-04-25 19:16 -23.07515 -68.83169 18757 ft 419 kts 359°
2026-04-25 19:17 -23.04643 -68.83071 18609 ft 407 kts 359°
2026-04-25 19:17 -23.01850 -68.82974 18491 ft 394 kts 359°
2026-04-25 19:17 -22.99149 -68.82876 18380 ft 382 kts 360°
2026-04-25 19:17 -22.96531 -68.82715 18260 ft 371 kts
2026-04-25 19:18 -22.93993 -68.82501 18130 ft 360 kts
2026-04-25 19:18 -22.91560 -68.82271 18001 ft 351 kts
2026-04-25 19:18 -22.89161 -68.82041 17819 ft 343 kts
2026-04-25 19:18 -22.86804 -68.81823 17535 ft 338 kts
2026-04-25 19:19 -22.84469 -68.81615 17013 ft 333 kts
2026-04-25 19:19 -22.82163 -68.81416 16377 ft 331 kts
2026-04-25 19:19 -22.79878 -68.81222 15775 ft 328 kts
2026-04-25 19:19 -22.78395 -68.81098 15497 ft 317 kts
2026-04-25 19:20 -22.75435 -68.80860 14153 ft 320 kts
2026-04-25 19:20 -22.73211 -68.80685 13545 ft 319 kts
2026-04-25 19:20 -22.71032 -68.80500 13125 ft 310 kts
2026-04-25 19:20 -22.68909 -68.80313 12714 ft 302 kts
2026-04-25 19:21 -22.66855 -68.80132 12498 ft 286 kts
2026-04-25 19:21 -22.63167 -68.79387 11921 ft 269 kts 19°
2026-04-25 19:21 -22.61395 -68.78665 11293 ft 275 kts 19°
2026-04-25 19:22 -22.59612 -68.77931 10866 ft 272 kts 19°
2026-04-25 19:22 -22.57862 -68.77212 10504 ft 265 kts 15°
2026-04-25 19:22 -22.54470 -68.77146 10309 ft 224 kts 338°
2026-04-25 19:23 -22.53111 -68.77807 9993 ft 211 kts 323°
2026-04-25 19:23 -22.51255 -68.79924 9596 ft 182 kts 296°
2026-04-25 19:23 -22.50758 -68.81146 9483 ft 175 kts 284°
2026-04-25 19:24 -22.50536 -68.82384 9340 ft 158 kts 272°
2026-04-25 19:24 -22.50465 -68.83559 9124 ft 155 kts 272°
2026-04-25 19:24 -22.50317 -68.85865 8613 ft 154 kts 270°
2026-04-25 19:25 -22.50172 -68.88162 8420 ft 164 kts 271°
2026-04-25 19:25 -22.50087 -68.89487 8765 ft 188 kts 274°
2026-04-25 19:25 -22.49982 -68.90974 9076 ft 210 kts 273°
2026-04-25 19:26 -22.49868 -68.92637 9269 ft 231 kts 272°
2026-04-25 19:26 -22.49754 -68.94389 9831 ft 235 kts 272°
2026-04-25 19:26 -22.49634 -68.96173 10127 ft 241 kts 274°
2026-04-25 19:26 -22.49506 -68.97950 10186 ft 234 kts 274°
2026-04-25 19:27 -22.49378 -68.99723 10409 ft 238 kts 274°
2026-04-25 19:27 -22.49291 -69.00934 10567 ft 241 kts 274°
2026-04-25 19:27 -22.49120 -69.03341 10866 ft 243 kts 274°
2026-04-25 19:27 -22.48992 -69.05175 11383 ft 246 kts 274°
2026-04-25 19:28 -22.48864 -69.07037 12023 ft 250 kts 274°
2026-04-25 19:28 -22.48732 -69.08932 12524 ft 256 kts 274°
2026-04-25 19:28 -22.48597 -69.10857 12642 ft 257 kts 274°
2026-04-25 19:28 -22.48461 -69.12788 12670 ft 257 kts 275°
2026-04-25 19:29 -22.47995 -69.14636 12666 ft 256 kts 299°
2026-04-25 19:29 -22.46856 -69.16094 12668 ft 257 kts 324°
2026-04-25 19:29 -22.45240 -69.16879 12665 ft 257 kts 350°
2026-04-25 19:29 -22.43462 -69.16827 12668 ft 258 kts 16°
2026-04-25 19:30 -22.41877 -69.15947 12671 ft 259 kts 42°
2026-04-25 19:30 -22.40805 -69.14406 12677 ft 259 kts 68°
2026-04-25 19:30 -22.40455 -69.12509 12682 ft 260 kts 91°
2026-04-25 19:30 -22.40501 -69.10552 12678 ft 261 kts 92°
2026-04-25 19:31 -22.40550 -69.08590 12686 ft 261 kts 91°
2026-04-25 19:31 -22.40595 -69.06623 12688 ft 262 kts 91°
2026-04-25 19:31 -22.40637 -69.04655 12690 ft 262 kts 91°
2026-04-25 19:31 -22.40680 -69.02690 12689 ft 262 kts 91°
2026-04-25 19:32 -22.40721 -69.00724 12694 ft 263 kts 91°
2026-04-25 19:32 -22.40763 -68.98745 12698 ft 263 kts 91°
2026-04-25 19:32 -22.40802 -68.96792 12698 ft 263 kts 91°
2026-04-25 19:32 -22.40829 -68.95459 12696 ft 263 kts 91°
2026-04-25 19:33 -22.40883 -68.92818 12703 ft 263 kts 91°
2026-04-25 19:33 -22.40921 -68.90869 12705 ft 263 kts 91°
2026-04-25 19:33 -22.40964 -68.88886 12707 ft 263 kts 91°
2026-04-25 19:33 -22.41005 -68.86909 12708 ft 263 kts 91°
2026-04-25 19:34 -22.41045 -68.84928 12713 ft 263 kts 91°
2026-04-25 19:34 -22.41085 -68.82950 12710 ft 263 kts 91°
2026-04-25 19:34 -22.41125 -68.80970 12709 ft 263 kts 91°
2026-04-25 19:34 -22.41164 -68.78998 12707 ft 263 kts 91°
2026-04-25 19:35 -22.41202 -68.77024 12709 ft 262 kts 91°
2026-04-25 19:35 -22.41238 -68.75055 12712 ft 262 kts 91°
2026-04-25 19:35 -22.41275 -68.73080 12711 ft 262 kts 91°
2026-04-25 19:35 -22.41315 -68.71111 12711 ft 262 kts 91°
2026-04-25 19:36 -22.41605 -68.69182 12710 ft 260 kts 115°
2026-04-25 19:36 -22.42675 -68.67635 12713 ft 258 kts 144°
2026-04-25 19:36 -22.44291 -68.66811 12373 ft 260 kts 174°
2026-04-25 19:36 -22.46081 -68.66837 12060 ft 258 kts 187°
2026-04-25 19:37 -22.47884 -68.66997 11742 ft 260 kts 187°
2026-04-25 19:37 -22.49622 -68.67413 11420 ft 254 kts 211°
2026-04-25 19:37 -22.50878 -68.68650 11128 ft 241 kts 241°
2026-04-25 19:37 -22.51359 -68.70338 10782 ft 233 kts 270°
2026-04-25 19:38 -22.51258 -68.72039 10462 ft 223 kts 273°
2026-04-25 19:38 -22.51140 -68.73660 10189 ft 208 kts 274°
2026-04-25 19:38 -22.51036 -68.75172 9866 ft 195 kts 272°
2026-04-25 19:38 -22.50941 -68.76577 9570 ft 180 kts 272°
2026-04-25 19:39 -22.50851 -68.77891 9321 ft 172 kts 273°
2026-04-25 19:39 -22.50763 -68.79160 9102 ft 167 kts 272°
2026-04-25 19:39 -22.50680 -68.80360 8897 ft 156 kts 272°
2026-04-25 19:39 -22.50600 -68.81519 8681 ft 154 kts 271°
2026-04-25 19:40 -22.50525 -68.82664 8511 ft 151 kts 271°
2026-04-25 19:40 -22.50453 -68.83780 8343 ft 151 kts 271°
2026-04-25 19:40 -22.50377 -68.84897 8162 ft 148 kts 272°
2026-04-25 19:40 -22.50299 -68.86012 8010 ft 149 kts 271°
2026-04-25 19:41 -22.50226 -68.87126 7915 ft 149 kts 270°
2026-04-25 19:41 -22.50158 -68.88249 7762 ft 149 kts 272°
2026-04-25 19:41 -22.50081 -68.89364 7604 ft 145 kts 272°
2026-04-25 19:41 -22.50059 -68.89716 7580 ft 132 kts 275°
2026-04-25 19:42 -22.49982 -68.90844 7486 ft 49 kts 275°
2026-04-25 19:42 -22.49963 -68.91049 7477 ft 17 kts 284°
2026-04-25 19:42 -22.49892 -68.91188 7464 ft 25 kts 304°
2026-04-25 19:42 -22.49783 -68.91304 7456 ft 4 kts
2026-04-25 19:43 -22.49780 -68.91280 7457 ft 7 kts 85°
2026-04-25 19:43 -22.49786 -68.91204 7460 ft 13 kts 97°
2026-04-25 19:43 -22.49799 -68.91082 7474 ft 19 kts 96°
2026-04-25 19:43 -22.49813 -68.90918 7486 ft 24 kts 93°
2026-04-25 19:44 -22.49763 -68.90778 7492 ft 20 kts 25°
2026-04-25 19:44 -22.49672 -68.90743 7490 ft 11 kts 68°
2026-04-25 19:44 -22.49633 -68.90711 7489 ft 6 kts 19°
2026-04-25 19:44 -22.49612 -68.90707 7495 ft 0 kts